Regional Weather Roundup
Issued by NWS

Home | Current Version | Previous Version | Text Only | Print | Product List | Glossary On
Versions: 1 2 3 4 5 6 7 8 9 10 11 12 13 14 15 16 17 18 19 20 21 22 23 24 25 26 27 28 29 30 31 32 33 34 35 36 37 38 39 40 41 42 43 44 45 46 47 48 49 50
000
ASUS44 KEWX 031303
RWRTX
SOUTH TEXAS REGIONAL WEATHER ROUNDUP
NATIONAL WEATHER SERVICE AUSTIN/SAN ANTONIO TX
800 AM CDT FRI JUL 03 2015

NOTE: "FAIR" INDICATED FEW OR NO CLOUDS BELOW 12,000 FEET WITH NO
SIGNIFICANT WEATHER AND/OR OBSTRUCTIONS TO VISIBILITY.

* - THESE STATIONS ARE NOT NWS OR FAA STATIONS...AND ARE NOT SUBJECT
    TO NWS AND FAA QUALITY CONTROL.

TXZ171-172-183>190-031400-
TEXAS HILL COUNTRY AND EDWARDS PLATEAU

CITY           SKY/WX    TMP DP  RH WIND       PRES   REMARKS
JUNCTION       PTSUNNY   73  67  81 CALM      30.03R
*LLANO         MOSUNNY   73  72  94 CALM      30.05R
BURNET         CLOUDY    74  72  93 S5        30.04S
*HORSESHOE BAY MOSUNNY   76  73  87 S7        30.01S
*KERRVILLE     PTSUNNY   74  71  89 S13       30.03R
*FREDERICKSBRG CLOUDY    73  69  88 S6        30.03R
*ROCKSPRINGS   CLOUDY    72  68  88 S14       30.05R FOG
*BOERNE STAGE  CLOUDY    73  70  88 S7        30.03R
*CASTROVILLE   CLOUDY    76  74  95 S9        30.01S FOG
HONDO          CLOUDY    75  73  93 SE9       30.01S FOG
*UVALDE        PTSUNNY   73  72  96 E7        29.99R FOG
DEL RIO        MOSUNNY   74  70  87 E9        29.95R
LAUGHLIN AFB   PTSUNNY   73  72  96 SE10      29.97R
CARRIZO SPRGS  SUNNY     72  70  94 SE6       29.94S FOG
$$

TXZ173-191>194-202-209-217>225-228-031400-
CENTRAL AND SOUTH CENTRAL TEXAS

CITY           SKY/WX    TMP DP  RH WIND       PRES   REMARKS
GEORGETOWN     PTSUNNY   79  72  78 S9        29.99S
AUSTIN/BERGSTM PTSUNNY   75  75 100 S7        30.00R FOG
AUSTIN/MABRY   CLOUDY    77  74  90 S5        30.01S
*AUSTIN/EXEC   CLOUDY    77  77 100 CALM      30.01S FOG
*LAGO VISTA    PTSUNNY   75  73  92 S5        30.03R FOG
SAN MARCOS     PTSUNNY   75  73  94 SE5       30.01R FOG
NEW BRAUNFELS  CLOUDY    78  75  90 S6        29.99R
RANDOLPH AFB   CLOUDY    76  76 100 SE6       30.00S
PT SAN ANTONIO CLOUDY    76  75  96 SE8       29.99R
SAN ANTONIO    CLOUDY    78  73  84 S13       30.01R
STINSON FIELD  CLOUDY    76  74  93 SE6       29.98R
*PLEASANTON    MOSUNNY   75  74  96 E5        29.98S FOG
*LA GRANGE     SUNNY     78  77  96 S3        29.99S FOG
*GIDDINGS      MOSUNNY   76  74  96 S5        30.04R FOG
*GONZALES      CLOUDY    78  78 100 S5        29.99R FOG
$$

TXZ163>164-176>182-195>201-210>213-226-227-235-031400-
SOUTHEAST TEXAS

CITY           SKY/WX    TMP DP  RH WIND       PRES   REMARKS
COLLEGE STN    CLOUDY    77  75  93 S7        29.99F
*BRYAN         MOSUNNY   76  76 100 S5        30.01S
*CALDWELL      SUNNY     75  75 100 CALM      30.03S FOG
*CROCKETT      SUNNY     77  77 100 S3        30.03R FOG
*BRENHAM       PTSUNNY   77  76  99 CALM      30.00S FOG
HUNTSVILLE     SUNNY     78  75  90 S5        30.01S
CONROE         SUNNY     78  75  90 S5        30.01S
HOUSTON BUSH   MOSUNNY   79  77  94 S5        30.00R
HOUSTON HOBBY  MOSUNNY   79  73  82 CALM      30.00R
*HOUSTON SW AP SUNNY     68  66  96 CALM      30.00S
PEARLAND       SUNNY     78  72  81 S3        30.01S
HOUSTON HOOKS  SUNNY     79  76  90 CALM      30.00S
ELLINGTON FLD  MOSUNNY   82  77  83 CALM      30.02R HX  91
SUGAR LAND     SUNNY     79  75  87 S5        30.00R
*HOUSTON EXEC  SUNNY     77  77 100 S7        30.01S
*CLEVELAND MUN FOG       75  75  99 CALM      30.02S VSB<1/4
*WHARTON       MOSUNNY   76  75  97 CALM      30.01R FOG
*COLUMBUS      FAIR      75  75 100 CALM      29.99S FOG
$$

TXZ214>216-236>238-031400-
THE UPPER TEXAS COAST

CITY           SKY/WX    TMP DP  RH WIND       PRES   REMARKS
*ORANGE        SUNNY     79  79 100 CALM      30.03S
PORT ARTHUR    MOSUNNY   80  77  90 S5        30.01S
GALVESTON      MOSUNNY   83  78  85 S8        30.01S HX  93
ANGLETON       MOSUNNY   77  74  90 N3        30.00S
*BAY CITY      MOSUNNY   78  78 100 CALM      29.99S FOG
PALACIOS       MOSUNNY   80  74  81 CALM      29.99R
$$

TXZ229>234-239>247-031400-
TEXAS COASTAL BEND AND RIO GRANDE PLAINS

CITY           SKY/WX    TMP DP  RH WIND       PRES   REMARKS
VICTORIA       PTSUNNY   78  78 100 SE5       29.99S FOG
*BEEVILLE      MOSUNNY  N/A N/A N/A SE7       29.97S FOG
ROCKPORT       SUNNY     81  77  88 SE5       29.97S
*PORT ARANSAS  MOSUNNY   79  78  97 SE3       29.97S FOG
*PORT LAVACA   MOSUNNY   78  77  98 CALM      29.99R FOG
*INGLESIDE     SUNNY     80  77  93 SE6       29.97S FOG
CORPUS CHRISTI PTSUNNY   78  76  93 SE6       29.96F FOG
CORPUS NAS     CLOUDY   N/A N/A N/A SE7       29.96F HAZE
*ROBSTOWN      SUNNY     77  32  19 SE5       29.97S HAZE
ALICE          CLOUDY    77  75  93 SE7       29.96S FOG
KINGSVILLE NAS CLOUDY    78  78 100 SE6       29.96F FOG
COTULLA        CLOUDY    75  73  93 SE13      29.96R FOG
*FAITH RANCH     N/A     73  70  88 E9        29.95R
LAREDO         SUNNY     77  73  87 SE15      29.95R
$$

TXZ248>255-031400-
DEEP SOUTH TEXAS

CITY           SKY/WX    TMP DP  RH WIND       PRES   REMARKS
BROWNSVILLE    MOSUNNY   78  77  96 SE5       29.95S FOG
PORT ISABEL    SUNNY     80  77  90 SE5       29.95R FOG
*SOUTH PADRE   SUNNY     77  77 100 CALM      29.96R VSB 1
HARLINGEN      PTSUNNY   78  77  96 E3        29.95S FOG
*HEBBRONVILLE    N/A     74  72  93 SE9       29.98R FOG
MCALLEN        PTSUNNY   79  74  84 SE10      29.95S HAZE
*WESLACO       SUNNY     76  73  92 E3        29.95S FOG
FALFURRIAS     PTSUNNY   76  74  93 SE5       29.95F
EDINBURG       SUNNY     76  73  89 CALM      29.97R FOG
*ZAPATA        SUNNY     76  73  89 SE7       29.94R
$$

TXZ213>215-236>238-242>244-246-247-251-254-255-031400-
CMAN STATIONS

STATION/POSITION TIME  TEMP    WIND        PRES    WAVE
                       AIR SEA DIR/SP/G            HT/PER
                 (UTC) (F)     (DEG/KT/KT) (MB)    (FT/S)
$$

GMZ080-GMZ150>470-031400-
OFFSHORE BUOY REPORTS

STATION/POSITION TIME  TEMP    WIND        PRES    WAVE
                       AIR SEA DIR/SP/G            HT/PER
                 (UTC) (F)     (DEG/KT/KT) (MB)    (FT/S)
$$



USA.gov is the U.S. government's official web portal to all federal, state and local government web resources and services.